Weather History for Bentonville, AR

Change the Weather History Date:

Tuesday, November 6, 2012

  Actual Average Record
Temperature  
Mean Temperature 49 °F -  
Max Temperature 59 °F 59 °F 78 °F (1978)
Min Temperature 39 °F 35 °F 15 °F (1959)
Degree Days  
Heating Degree Days 16    
Moisture  
Dew Point 37 °F    
Average Humidity 66    
Maximum Humidity 81    
Minimum Humidity 45    
Precipitation  
Precipitation 0.00 in - - ()
Sea Level Pressure  
Sea Level Pressure 30.06 in    
Wind  
Wind Speed 6 mph (WNW)    
Max Wind Speed 14 mph    
Max Gust Speed 21 mph    
Visibility 10 miles    
Events      
Averages and records for this station are not official NWS values.
T = Trace of Precipitation, MM = Missing Value Source: NWS Daily Summary

Daily Weather History Graph

Daily Weather History Graph

Search for Another Location

Airport:

Trip Planner

Search our weather history database for the weather conditions in past years. The results will help you decide how hot, cold, wet, or windy it might be!

Date:

Astronomy

Nov. 06, 2012 Rise Set
Actual Time 6:45 AM CST 5:15 PM CST
Civil Twilight 6:18 AM CST 5:42 PM CST
Nautical Twilight 5:47 AM CST 6:12 PM CST
Astronomical Twilight 5:17 AM CST 6:42 PM CST
Moon 11:52 PM CST (11/6) 12:39 PM CST (11/6)
Length of Visible Light 11h 23m
Length of Day
10h 29m
Waning Gibbous, 53% of the Moon is Illuminated
Nov 6
Waning Gibbous
Nov 6
Last Quarter
Nov 13
New
Nov 20
First Quarter
Nov 28
Full

Hourly Weather History & Observations

Time (CST) Temp. Windchill Dew Point Humidity Pressure Visibility Wind Dir Wind Speed Gust Speed Precip Events Conditions
12:15 AM 44.6 °F 40.7 °F 39.2 °F 81% 30.06 in 10.0 mi North 6.9 mph - N/A   Overcast
12:35 AM 44.6 °F 40.7 °F 39.2 °F 81% 30.07 in 10.0 mi NNW 6.9 mph - N/A   Overcast
1:15 AM 44.6 °F 40.7 °F 39.2 °F 81% 30.06 in 7.0 mi North 6.9 mph - N/A   Overcast
1:55 AM 44.6 °F 41.4 °F 39.2 °F 81% 30.07 in 7.0 mi North 5.8 mph - N/A   Overcast
2:15 AM 44.6 °F 43.1 °F 37.4 °F 76% 30.06 in 9.0 mi North 3.5 mph - N/A   Overcast
2:35 AM 44.6 °F 41.4 °F 37.4 °F 76% 30.07 in 10.0 mi North 5.8 mph - N/A   Overcast
2:56 AM 44.6 °F 42.2 °F 37.4 °F 76% 30.06 in 9.0 mi NNE 4.6 mph - N/A   Overcast
3:15 AM 44.6 °F 42.2 °F 37.4 °F 76% 30.06 in 10.0 mi North 4.6 mph - N/A   Overcast
3:35 AM 44.6 °F 42.2 °F 37.4 °F 76% 30.05 in 8.0 mi NNW 4.6 mph - N/A   Overcast
4:15 AM 44.6 °F 42.2 °F 37.4 °F 76% 30.06 in 10.0 mi NNW 4.6 mph - N/A   Overcast
4:35 AM 44.6 °F 43.1 °F 35.6 °F 71% 30.07 in 10.0 mi North 3.5 mph - N/A   Overcast
4:55 AM 42.8 °F 39.3 °F 35.6 °F 76% 30.07 in 10.0 mi North 5.8 mph - N/A   Overcast
5:16 AM 42.8 °F 40.1 °F 35.6 °F 76% 30.05 in 10.0 mi North 4.6 mph - N/A   Overcast
5:35 AM 42.8 °F - 35.6 °F 76% 30.06 in 10.0 mi Calm Calm - N/A   Overcast
5:55 AM 42.8 °F - 35.6 °F 76% 30.06 in 10.0 mi Calm Calm - N/A   Overcast
6:15 AM 42.8 °F 41.1 °F 35.6 °F 76% 30.05 in 10.0 mi West 3.5 mph - N/A   Overcast
6:35 AM 42.8 °F 40.1 °F 35.6 °F 76% 30.07 in 10.0 mi NW 4.6 mph - N/A   Overcast
7:15 AM 42.8 °F 40.1 °F 35.6 °F 76% 30.08 in 10.0 mi NW 4.6 mph - N/A   Overcast
7:35 AM 44.6 °F 43.1 °F 35.6 °F 71% 30.09 in 10.0 mi WNW 3.5 mph - N/A   Overcast
7:55 AM 44.6 °F 43.1 °F 35.6 °F 71% 30.09 in 10.0 mi NW 3.5 mph - N/A   Overcast
8:35 AM 44.6 °F 42.2 °F 35.6 °F 71% 30.10 in 10.0 mi West 4.6 mph - N/A   Overcast
8:55 AM 44.6 °F 42.2 °F 37.4 °F 76% 30.10 in 9.0 mi WNW 4.6 mph - N/A   Overcast
9:15 AM 44.6 °F 42.2 °F 37.4 °F 76% 30.09 in 9.0 mi WSW 4.6 mph - N/A   Overcast
9:35 AM 46.4 °F 43.5 °F 37.4 °F 71% 30.08 in 8.0 mi WSW 5.8 mph - N/A   Mostly Cloudy
9:55 AM 46.4 °F 42.4 °F 37.4 °F 71% 30.08 in 10.0 mi SW 8.1 mph - N/A   Clear
10:15 AM 48.2 °F - 37.4 °F 66% 30.09 in 9.0 mi West 5.8 mph - N/A   Clear
10:55 AM 51.8 °F - 37.4 °F 58% 30.08 in 10.0 mi West 4.6 mph - N/A   Clear
11:15 AM 51.8 °F - 37.4 °F 58% 30.07 in 10.0 mi WSW 8.1 mph - N/A   Clear
11:35 AM 53.6 °F - 39.2 °F 58% 30.07 in 10.0 mi WNW 10.4 mph - N/A   Clear
11:56 AM 53.6 °F - 37.4 °F 54% 30.06 in 10.0 mi West 10.4 mph - N/A   Clear
12:15 PM 53.6 °F - 39.2 °F 58% 30.04 in 10.0 mi West 8.1 mph - N/A   Clear
12:35 PM 55.4 °F - 39.2 °F 54% 30.03 in 10.0 mi West 9.2 mph - N/A   Clear
1:15 PM 57.2 °F - 37.4 °F 48% 30.03 in 10.0 mi WNW 8.1 mph - N/A   Clear
1:35 PM 57.2 °F - 37.4 °F 48% 30.03 in 10.0 mi WNW 13.8 mph - N/A   Clear
1:55 PM 59.0 °F - 39.2 °F 48% 30.02 in 10.0 mi West 11.5 mph - N/A   Clear
2:16 PM 59.0 °F - 37.4 °F 45% 30.02 in 10.0 mi NNW 13.8 mph 20.7 mph N/A   Clear
2:55 PM 57.2 °F - 37.4 °F 48% 30.02 in 10.0 mi WNW 13.8 mph - N/A   Clear
3:16 PM 57.2 °F - 39.2 °F 51% 30.02 in 10.0 mi WNW 12.7 mph 16.1 mph N/A   Clear
3:35 PM 57.2 °F - 39.2 °F 51% 30.01 in 10.0 mi West 11.5 mph - N/A   Clear
3:55 PM 55.4 °F - 39.2 °F 54% 30.01 in 10.0 mi West 10.4 mph - N/A   Clear
4:35 PM 55.4 °F - 39.2 °F 54% 30.02 in 10.0 mi WNW 5.8 mph - N/A   Clear
4:55 PM 55.4 °F - 37.4 °F 51% 30.02 in 10.0 mi NW 3.5 mph - N/A   Clear
5:35 PM 53.6 °F - 37.4 °F 54% 30.03 in 10.0 mi West 3.5 mph - N/A   Clear
5:55 PM 50.0 °F - 37.4 °F 62% 30.03 in 10.0 mi West 3.5 mph - N/A   Clear
6:15 PM 48.2 °F - 37.4 °F 66% 30.03 in 10.0 mi SW 4.6 mph - N/A   Clear
6:55 PM 46.4 °F 45.2 °F 37.4 °F 71% 30.04 in 10.0 mi West 3.5 mph - N/A   Clear
7:15 PM 46.4 °F 45.2 °F 37.4 °F 71% 30.05 in 10.0 mi WNW 3.5 mph - N/A   Clear
7:35 PM 46.4 °F 44.3 °F 37.4 °F 71% 30.05 in 10.0 mi WNW 4.6 mph - N/A   Clear
7:56 PM 48.2 °F - 37.4 °F 66% 30.05 in 10.0 mi NW 6.9 mph - N/A   Clear
8:35 PM 50.0 °F - 35.6 °F 58% 30.07 in 10.0 mi NNW 4.6 mph - N/A   Clear
8:56 PM 50.0 °F - 33.8 °F 54% 30.07 in 10.0 mi NNW 3.5 mph - N/A   Clear
9:15 PM 46.4 °F - 33.8 °F 62% 30.07 in 10.0 mi Calm Calm - N/A   Clear
9:35 PM 46.4 °F 45.2 °F 33.8 °F 62% 30.07 in 10.0 mi NW 3.5 mph - N/A   Clear
9:55 PM 44.6 °F - 32.0 °F 61% 30.07 in 10.0 mi Calm Calm - N/A   Clear
10:16 PM 44.6 °F 43.1 °F 30.2 °F 57% 30.07 in 10.0 mi NW 3.5 mph - N/A   Clear
10:55 PM 39.2 °F - 28.4 °F 65% 30.07 in 10.0 mi Calm Calm - N/A   Clear
11:35 PM 39.2 °F - 28.4 °F 65% 30.07 in 10.0 mi Calm Calm - N/A   Clear